This demonstration page uses our WeatherBlox Daily Observations layout. Learn more.

Left ArrowRight Arrow

38.20091, -84.87328

Hourly Observations for May 18, 2020

Temp ( °F °C ) Dew Point ( °F °C ) Humidity (%) Winds ( mph kmh ) Pressure ( in mb ) Visibility ( mi km ) Precip ( " mm )
12:53 am 00:53 Cloudy 72 22.2 63 17.2 73 73 S 7 11 29.78 1008 10 16 0.00 0.00
1:53 am 01:53 Mostly Cloudy 72 22.2 63 17.2 73 73 SSW 7 11 29.76 1008 10 16 0.00 0.00
2:53 am 02:53 Cloudy 72 22.2 63 17.2 73 73 S 7 11 29.75 1008 10 16 0.00 0.00
3:53 am 03:53 Mostly Clear 71 21.7 63 17.2 76 76 S 7 11 29.74 1007 10 16 0.00 0.00
4:53 am 04:53 Mostly Cloudy 70 21.1 63 17.2 79 79 SSE 5 7 29.74 1007 10 16 0.00 0.00
5:53 am 05:53 Cloudy 69 20.6 63 17.2 81 81 SSE 3 6 29.74 1007 10 16 0.00 0.00
6:18 am 06:18 Cloudy 70 21.1 63 17.2 79 79 S 7 11 29.75 1007 10 16 0.00 0.00
6:50 am 06:50 Cloudy 72 22 63 17 73 73 S 9 15 29.75 1007 10 16 0.00 0.00
6:53 am 06:53 Mostly Cloudy 71 21.7 62 16.7 73 73 S 8 13 29.75 1007 10 16 0.00 0.00
7:53 am 07:53 Cloudy with Light Rain 70 21.1 63 17.2 79 79 S 15 24 29.75 1008 9 14 0.00 0.00
8:11 am 08:11 Cloudy with Heavy Rain 68 20 64 17.8 87 87 SSW 9 15 29.76 1008 2 3 0.08 2.03
8:17 am 08:17 Cloudy with Light Rain 68 20 64 17.8 87 87 SSW 8 13 29.76 1008 3 5 0.08 2.03
8:53 am 08:53 Cloudy 69 20.6 65 18.3 87 87 S 8 13 29.75 1008 10 16 0.08 2.03
9:53 am 09:53 Cloudy 71 21.7 64 17.8 79 79 S 7 11 29.76 1008 10 16 0.00 0.00
10:53 am 10:53 Cloudy with Rain 69 20.6 65 18.3 87 87 S 10 17 29.77 1008 6 10 0.07 1.78
11:53 am 11:53 Cloudy 71 21.7 66 18.9 84 84 SSW 6 9 29.77 1008 10 16 0.06 1.52
12:17 pm 12:17 Cloudy with Nearby Thunderstorms 72 22.2 67 19.4 84 84 Calm 29.75 1007 10 16 0.00 0.00
12:29 pm 12:29 Cloudy with Nearby Thunderstorms 72 22.2 66 18.9 82 82 Calm 29.75 1007 1 2 0.06 1.52
12:31 pm 12:31 Cloudy with Nearby Thunderstorms 71 21.7 66 18.9 84 84 W 5 7 29.75 1007 1 2 0.09 2.29
12:35 pm 12:35 Cloudy with Strong Thunderstorms 70 21.1 66 18.9 87 87 W 6 9 29.75 1007 1 1 0.16 4.06
12:40 pm 12:40 Cloudy with Strong Thunderstorms 69 20.6 66 18.9 90 90 W 5 7 29.74 1007 1 1 0.21 5.33
12:45 pm 12:45 Cloudy with Thunderstorms 69 20.6 67 19.4 93 93 SW 7 11 29.74 1007 1 2 0.22 5.59
12:48 pm 12:48 Cloudy with Thunderstorms 70 21 66 19 88 88 SSW 10 17 29.74 1007 2 3 0.23 5.84
12:53 pm 12:53 Cloudy with Heavy Rain 69 20.6 66 18.9 90 90 S 8 13 29.74 1007 3 4 0.26 6.60
1:00 pm 13:00 Cloudy with Light Rain 70 21.1 67 19.4 90 90 S 3 6 29.74 1007 7 11 0.00 0.00
1:09 pm 13:09 Mostly Cloudy with Nearby Thunderstorms 71 21.7 67 19.4 87 87 S 6 9 29.73 1007 10 16 0.00 0.00
1:25 pm 13:25 Mostly Cloudy 71 21.7 67 19.4 87 87 SSE 5 7 29.73 1007 10 16 0.00 0.00
1:53 pm 13:53 Mostly Cloudy 73 22.8 68 20 84 84 S 6 9 29.72 1006 10 16 0.00 0.00
2:34 pm 14:34 Mostly Cloudy with Nearby Thunderstorms 74 23.3 67 19.4 79 79 S 9 15 29.70 1006 10 16 0.00 0.00
2:41 pm 14:41 Mostly Cloudy with Thunderstorms 72 22.2 66 18.9 82 82 WSW 14 22 29.73 1007 6 10 0.01 0.25
2:50 pm 14:50 Cloudy with Nearby Thunderstorms 68 20 63 17 83 83 WNW 9 15 29.74 1007 10 16 0.01 0.25
2:53 pm 14:53 Cloudy with Nearby Thunderstorms 67 19.4 62 16.7 84 84 VRB 7 11 29.74 1007 10 16 0.01 0.25
3:01 pm 15:01 Cloudy with Nearby Thunderstorms 64 17.8 61 16.1 90 90 WNW 14 22 29.74 1007 3 4 0.04 1.02
3:03 pm 15:03 Cloudy with Nearby Thunderstorms 64 17.8 61 16.1 90 90 WNW 9 15 29.74 1007 2 2 0.09 2.29
3:06 pm 15:06 Cloudy with Nearby Thunderstorms 64 17.8 61 16.1 90 90 NW 10 17 29.74 1007 1 1 0.16 4.06
3:12 pm 15:12 Cloudy with Nearby Thunderstorms 64 17.8 61 16.1 90 90 NW 10 17 29.74 1007 1 2 0.19 4.83
3:16 pm 15:16 Cloudy with Nearby Thunderstorms 64 17.8 61 16.1 90 90 NNW 7 11 29.75 1007 3 4 0.19 4.83
3:18 pm 15:18 Cloudy with Thunderstorms 64 17.8 61 16.1 90 90 NNW 9 15 29.74 1007 5 8 0.19 4.83
3:33 pm 15:33 Cloudy with Nearby Thunderstorms 64 17.8 61 16.1 90 90 NNW 9 15 29.75 1007 10 16 0.19 4.83
3:42 pm 15:42 Cloudy 64 17.8 61 16.1 90 90 NNW 13 20 29.75 1007 10 16 0.19 4.83
3:53 pm 15:53 Cloudy with Light Rain 64 17.8 60 15.6 87 87 NW 13 20 29.74 1007 9 14 0.19 4.83
4:02 pm 16:02 Cloudy with Light Rain 64 17.8 61 16.1 90 90 NW 10 17 29.75 1007 8 13 0.01 0.25
4:12 pm 16:12 Cloudy with Rain 63 17.2 60 15.6 90 90 NNW 9 15 29.75 1007 6 10 0.03 0.76
4:24 pm 16:24 Cloudy 63 17.2 60 15.6 90 90 VRB 5 7 29.76 1008 10 16 0.03 0.76
4:53 pm 16:53 Cloudy 64 17.8 60 15.6 87 87 NW 8 13 29.75 1007 10 16 0.03 0.76
5:53 pm 17:53 Cloudy 63 17.2 60 15.6 90 90 NNW 6 9 29.75 1007 10 16 0.00 0.00
6:40 pm 18:40 Cloudy with Heavy Rain 62 16.7 60 15.6 93 93 W 5 7 29.77 1008 2 3 0.08 2.03
6:49 pm 18:49 Cloudy with Rain 63 17 59 15 88 88 WNW 8 13 29.77 1008 1 2 0.14 3.56
6:53 pm 18:53 Cloudy with Rain 62 16.7 59 15 90 90 NW 5 7 29.77 1008 2 2 0.16 4.06
7:06 pm 19:06 Cloudy with Rain 62 16.7 59 15 90 90 NW 6 9 29.78 1008 3 5 0.04 1.02
7:16 pm 19:16 Cloudy with Light Rain 62 16.7 59 15 90 90 NNW 6 9 29.78 1008 5 8 0.06 1.52
7:23 pm 19:23 Cloudy with Rain 62 16.7 59 15 90 90 N 6 9 29.77 1008 4 6 0.07 1.78
7:31 pm 19:31 Cloudy with Light Rain 62 16.7 59 15 90 90 NNE 7 11 29.74 1007 5 8 0.08 2.03
7:53 pm 19:53 Partly Cloudy with Light Rain 61 16.1 58 14.4 90 90 N 7 11 29.74 1007 10 16 0.10 2.54
8:02 pm 20:02 Mostly Cloudy 61 16.1 58 14.4 90 90 NW 3 6 29.76 1008 10 16 0.00 0.00
8:11 pm 20:11 Mostly Cloudy 61 16.1 58 14.4 90 90 NW 3 6 29.75 1008 10 16 0.00 0.00
8:44 pm 20:44 Partly Cloudy 61 16.1 58 14.4 90 90 Calm 29.76 1008 10 16 0.00 0.00
8:53 pm 20:53 Mostly Cloudy 61 16.1 58 14.4 90 90 ENE 6 9 29.75 1007 10 16 0.00 0.00
9:14 pm 21:14 Cloudy 61 16.1 58 14.4 90 90 Calm 29.76 1008 10 16 0.00 0.00
9:53 pm 21:53 Cloudy 61 16.1 59 15 93 93 Calm 29.75 1007 10 16 0.00 0.00
10:53 pm 22:53 Cloudy 61 16.1 58 14.4 90 90 NW 5 7 29.76 1008 10 16 0.00 0.00
11:53 pm 23:53 Cloudy 61 16.1 58 14.4 90 90 Calm 29.77 1008 10 16 0.00 0.00

Powered by AerisWeather